{"data":{"norad_id":60994,"intl_designator":"2024-158E","name":"STARLINK-11267 [DTC]","alt_names":[],"object_type":"PAYLOAD","status":"ACTIVE","operator":null,"country":"US","launch_date":"2024-09-05","launch_site_code":"AFETR","launch_vehicle":null,"mission":null,"orbit_class":"UNKNOWN","rcs_meters":null,"size_class":null,"mass_kg":null,"dimensions":null,"purposes":["comms"],"wikipedia_slug":null,"has_3d_model":false,"image_url":null,"decayed_at":null,"tle_current":{"epoch":"2026-09-21T13:20:50.089920Z","epoch_age_seconds":97576,"freshness":"FRESH","line1":"1 60994U 24158E   26264.55613530  .00000283  00000+0  71934-5 0  9997","line2":"2 60994  53.1609  36.0156 0000843  92.1724 267.9391 15.69708872118353","mean_motion":15.69708872,"eccentricity":8.43e-5,"inclination_deg":53.1609,"raan_deg":36.0156,"arg_perigee_deg":92.1724,"mean_anomaly_deg":267.9391,"bstar":7.1934e-6,"rev_number":11835,"period_min":91.736756139071,"perigee_km":359.16197613967,"apogee_km":360.29798051221,"semimajor_km":6737.8669783259,"source":"CELESTRAK","updated_at":"2026-09-22T09:00:49.294939Z"}}}